Location: Gwatt
(46.7204°N, 7.6223°E)
Time: 14:58:26
(UTC+00:00)

Tiros 1 - All Passes

Search period start: 23 January 2021 00:00
Search period end: 02 February 2021 00:00
Orbit: 630 x 663 km, 48.4° (Epoch: 23 January)

Date Brightness Start Highest point End Pass type
(mag) Time Alt. Az. Time Alt. Az. Time Alt. Az.
23 Jan - 17:30:26 10° SSW 17:34:41 36° SSE 17:38:55 10° E visible
23 Jan - 19:11:59 10° WSW 19:16:37 87° NNW 19:21:16 10° ENE visible
23 Jan - 20:54:23 10° W 20:59:00 73° N 21:03:38 10° E visible
23 Jan - 22:36:39 10° WNW 22:41:12 59° SSW 22:45:45 10° SE night (unlit)
24 Jan - 00:19:46 10° W 00:22:44 17° SW 00:25:41 10° S night (unlit)
24 Jan - 16:15:46 10° S 16:18:55 18° SE 16:22:04 10° E daylight
24 Jan - 17:55:54 10° SW 18:00:29 62° SSE 18:05:04 10° ENE visible
24 Jan - 19:38:04 10° W 19:42:42 72° N 19:47:20 10° E visible
24 Jan - 21:20:26 10° WNW 21:25:04 89° N 21:29:43 10° ESE night (unlit)
24 Jan - 23:02:49 10° W 23:07:00 34° SW 23:11:11 10° SSE night (unlit)
25 Jan - 16:40:21 10° SSW 16:44:32 34° SE 16:48:44 10° E daylight
25 Jan - 18:21:47 10° WSW 18:26:27 89° NNW 18:31:06 10° ENE visible
25 Jan - 20:04:11 10° W 20:08:50 72° N 20:13:27 10° E visible
25 Jan - 21:46:28 10° WNW 21:51:03 62° SSW 21:55:36 10° SE night (unlit)
25 Jan - 23:29:28 10° W 23:32:37 18° SW 23:35:45 10° S night (unlit)
26 Jan - 15:25:49 10° S 15:28:48 17° SE 15:31:47 10° E daylight
26 Jan - 17:05:46 10° SW 17:10:20 59° SSE 17:14:54 10° ENE visible
26 Jan - 18:47:53 10° W 18:52:32 73° N 18:57:10 10° E visible
26 Jan - 20:30:15 10° WNW 20:34:54 87° NNE 20:39:33 10° ESE visible
26 Jan - 22:12:37 10° W 22:16:52 36° SSW 22:21:06 10° SSE night (unlit)
27 Jan - 15:50:16 10° SSW 15:54:24 32° SE 15:58:31 10° E daylight
27 Jan - 17:31:38 10° WSW 17:36:17 88° SSE 17:40:56 10° ENE visible
27 Jan - 19:14:00 10° W 19:18:39 72° N 19:23:17 10° E visible
27 Jan - 20:56:18 10° WNW 21:00:53 66° SSW 21:05:28 10° ESE visible
27 Jan - 22:39:11 10° W 22:42:30 19° SW 22:45:48 10° S night (unlit)
28 Jan - 14:35:54 10° S 14:38:41 16° SE 14:41:27 10° E daylight
28 Jan - 16:15:37 10° SW 16:20:11 56° SSE 16:24:44 10° ENE daylight
28 Jan - 17:57:41 10° W 18:02:21 74° N 18:06:59 10° E visible
28 Jan - 19:40:05 10° WNW 19:44:44 84° NNE 19:49:22 10° ESE visible
28 Jan - 21:22:25 10° W 21:26:43 39° SSW 21:31:00 10° SE night (unlit)
29 Jan - 15:00:11 10° SSW 15:04:16 30° SE 15:08:19 10° E daylight
29 Jan - 16:41:26 10° WSW 16:46:07 85° SSE 16:50:46 10° ENE daylight
29 Jan - 18:23:49 10° W 18:28:28 71° N 18:33:06 10° E visible
29 Jan - 20:06:07 10° WNW 20:10:44 69° SSW 20:15:19 10° ESE visible
29 Jan - 21:48:55 10° W 21:52:22 21° SW 21:55:49 10° S night (unlit)
30 Jan - 13:46:01 10° SSE 13:48:34 15° SE 13:51:07 10° ESE daylight
30 Jan - 15:25:28 10° SW 15:30:01 53° SSE 15:34:33 10° ENE daylight
30 Jan - 17:07:30 10° W 17:12:10 76° N 17:16:49 10° ENE visible
30 Jan - 18:49:54 10° WNW 18:54:34 82° NNE 18:59:12 10° E visible
30 Jan - 20:32:14 10° W 20:36:35 41° SSW 20:40:55 10° SE visible
31 Jan - 14:10:07 10° SSW 14:14:08 28° SE 14:18:07 10° E daylight
31 Jan - 15:51:15 10° WSW 15:55:56 82° SSE 16:00:36 10° ENE daylight
31 Jan - 17:33:37 10° W 17:38:17 71° N 17:42:55 10° E visible
31 Jan - 19:15:56 10° WNW 19:20:34 72° SSW 19:25:10 10° ESE visible
31 Jan - 20:58:39 10° W 21:02:15 22° SW 21:05:50 10° SSE visible
01 Feb - 12:56:10 10° SSE 12:58:27 13° SE 13:00:44 10° ESE daylight
01 Feb - 14:35:20 10° SW 14:39:52 50° SSE 14:44:23 10° ENE daylight
01 Feb - 16:17:18 10° W 16:22:00 77° N 16:26:39 10° ENE daylight
01 Feb - 17:59:43 10° WNW 18:04:23 80° NNE 18:09:02 10° E visible
01 Feb - 19:42:02 10° WNW 19:46:26 44° SSW 19:50:48 10° SE visible
01 Feb - 21:26:38 10° WSW 21:27:44 11° SW 21:28:50 10° SSW night (unlit)
